HULIANWANG DIGUI-37 (64958 NORAD) Tracking and Keplerian Element Data

This shows tracking and keplerian element data for the satellite.

Feedback or suggestion? Click here.




ElementValue
Catalog64958
NameHULIANWANG DIGUI-37
Epoch Orbit1943
Epoch Day354.19106994
Epoch Year2025
RAAN342.8205
Inclination86.4926
Eccentricity0.000191
Argument of Perigee95.3654
Mean Anonmoly264.7698
Mean Motion13.24412411
Decay Rate1.8E-07
L11 64958U 25159C 25354.19106994 .00000018 00000+0 89045-5 0 9991
L22 64958 86.4926 342.8205 0001910 95.3654 264.7698 13.24412411 19438



Live tracking and technical data element details for HULIANWANG DIGUI-37 (NORAD 64958). HULIANWANG DIGUI-37 can be tracked NOW for your location showing map with azimuth and elevation plus other details from your city location.







IsCatalogInMostPopularTable: catalog: 64958, numindb: 4
Update: records affected: 1



GetName: 64958 HULIANWANG DIGUI-37

Hit Count: updated at: Sat, 11 Apr 2026 21:03:02 GMT